User: anonymous   Login
Location: Unspecified
(0.0000°N, 0.0000°E)
Time: 18:39:29
(UTC+01:00)
Language:

Iridium 39 - Orbit

View from above orbital plane
View from above orbital plane
View from above satellite
View from above satellite

Ground track
Ground track

The orbit data is extracted from the following two-line orbital elements,

1 25042U 97069D   14324.49962502  .00000857  00000-0  29903-3 0   576
2 25042 086.4006 054.9472 0002063 107.4574 252.6847 14.34207897891624
Epoch (UTC): 20 November 2014 11:59:27
Eccentricity: 0.0002063
inclination: 86.4006°
perigee height: 776 km
apogee height: 779 km
right ascension of ascending node: 54.9472°
argument of perigee: 107.4574°
revolutions per day: 14.34207897
mean anomaly at epoch: 252.6847°
orbit number at epoch: 89162

The dashed part of the orbit path shows where the satellite is in the earth's shadow,  

DLR